User: anonymous   Login
Location: Bittelbronn
(48.4454°N, 8.5870°E)
Time: 15:47:11
(UTC+00:00)
Language:

Cosmos 1782 Rocket - Orbit

View from above orbital plane
View from above orbital plane
View from above satellite
View from above satellite

Ground track
Ground track

The orbit data is extracted from the following two-line orbital elements,

1 16987U 86074B   24207.04665270  .00000964  00000-0  11202-3 0  9999
2 16987  82.5143  39.2433 0017613 353.7106 124.5775 14.84261364 43112
Epoch (UTC): 25 July 2024 01:07:10
Eccentricity: 0.0017613
inclination: 82.5143°
perigee height: 603 km
apogee height: 628 km
right ascension of ascending node: 39.2433°
argument of perigee: 353.7106°
revolutions per day: 14.84261364
mean anomaly at epoch: 124.5775°
orbit number at epoch: 4311

The dashed part of the orbit path shows where the satellite is in the earth's shadow,  

DLR